Location: Observatorio Las Palmas
(29.0667°N, 110.9333°W)
Time: 19:22:17
(UTC-07:00)

Skynet4D Del rocket - Visible Passes

Search period start: 02 September 2014 00:00
Search period end: 12 September 2014 00:00
Orbit: 763 x 1291 km, 26.9° (Epoch: 31 August)

Date Brightness Start Highest point End Pass type
(mag) Time Alt. Az. Time Alt. Az. Time Alt. Az.
02 Sep 4.9 19:53:19 10° W 20:00:55 52° SSW 20:06:04 23° SE visible
02 Sep 6.1 21:47:24 10° WSW 21:51:41 22° SW 21:51:41 22° SW visible
03 Sep 5.4 20:35:16 10° W 20:42:20 35° SSW 20:44:51 29° S visible
04 Sep 5.1 19:23:40 10° W 19:30:52 46° SSW 19:38:03 12° SE visible
04 Sep 6.1 21:18:00 10° WSW 21:23:39 21° SSW 21:23:41 21° SSW visible
05 Sep 5.7 20:05:44 10° W 20:12:15 30° SSW 20:16:56 18° SSE visible
06 Sep 5.4 18:54:08 10° W 19:00:51 40° SSW 19:08:16 10° SE visible
06 Sep 6.3 20:48:55 10° WSW 20:53:35 17° SSW 20:55:53 15° S visible
07 Sep 6.0 19:36:24 10° WSW 19:42:14 25° SSW 19:48:29 10° SSE visible
08 Sep 6.5 20:20:24 10° SW 20:23:35 13° SSW 20:26:52 10° S visible
09 Sep 6.2 19:07:19 10° WSW 19:12:16 20° SSW 19:17:35 10° SSE visible
